This demonstration page uses our WeatherBlox Daily Observations layout. Learn more.

Left ArrowRight Arrow

Hourly Observations for October 19, 2019

Temp ( °F °C ) Dew Point ( °F °C ) Humidity (%) Winds ( mph kmh ) Pressure ( in mb ) Visibility ( mi km ) Precip ( " mm )
12:53 am 00:53 Clear 60 15.6 43 6.1 53 53 E 3 6 29.96 1015 10 16 0.00 0.00
1:53 am 01:53 Clear 60 15.6 43 6.1 53 53 VRB 6 9 29.95 1014 10 16 0.00 0.00
2:53 am 02:53 Cloudy 61 16.1 43 6.1 52 52 E 8 13 29.93 1014 10 16 0.00 0.00
3:53 am 03:53 Mostly Cloudy 60 15.6 44 6.7 56 56 ENE 8 13 29.92 1013 10 16 0.00 0.00
4:53 am 04:53 Cloudy with Light Rain 61 16.1 44 6.7 54 54 ENE 8 13 29.91 1013 10 16 0.00 0.00
5:36 am 05:36 Cloudy with Light Rain 59 15 47 8.3 64 64 E 7 11 29.92 1013 10 16 0.00 0.00
5:53 am 05:53 Cloudy with Light Rain 57 13.9 48 8.9 72 72 ENE 9 15 29.91 1013 10 16 0.01 0.25
6:50 am 06:50 Cloudy 57 14 48 9 72 72 E 7 11 29.94 1014 10 16 0.00 0.00
6:53 am 06:53 Cloudy 58 14.4 47 8.3 67 67 E 7 11 29.93 1013 10 16 0.00 0.00
7:07 am 07:07 Cloudy with Light Rain 58 14.4 48 8.9 70 70 ENE 12 19 29.94 1014 10 16 0.00 0.00
7:27 am 07:27 Cloudy with Light Rain 57 13.9 48 8.9 72 72 E 8 13 29.94 1014 10 16 0.00 0.00
7:53 am 07:53 Cloudy with Light Rain 57 13.9 48 8.9 72 72 E 10 17 29.93 1014 10 16 0.00 0.00
8:53 am 08:53 Cloudy with Light Rain 55 12.8 49 9.4 80 80 E 9 15 29.94 1014 9 14 0.05 1.27
9:53 am 09:53 Cloudy with Light Rain 53 11.7 50 10 89 89 ENE 9 15 29.96 1014 8 13 0.08 2.03
10:26 am 10:26 Cloudy with Light Rain 53 11.7 50 10 89 89 ENE 10 17 29.97 1015 5 8 0.01 0.25
10:53 am 10:53 Cloudy with Light Rain 53 11.7 50 10 89 89 NE 12 19 29.96 1014 7 11 0.01 0.25
11:48 am 11:48 Cloudy with Rain 54 12 50 10 88 88 ENE 15 24 29.95 1014 2 3 0.03 0.76
11:53 am 11:53 Cloudy with Rain 53 11.7 51 10.6 93 93 NE 14 22 29.93 1014 2 3 0.05 1.27
11:57 am 11:57 Cloudy with Heavy Rain 53 11.7 51 10.6 93 93 NE 15 24 29.94 1014 2 3 0.01 0.25
12:04 pm 12:04 Cloudy with Rain 53 11.7 51 10.6 93 93 ENE 14 22 29.94 1014 2 3 0.04 1.02
12:53 pm 12:53 Cloudy with Light Rain 54 12.2 51 10.6 90 90 ENE 16 26 29.91 1013 2 3 0.08 2.03
1:00 pm 13:00 Cloudy with Light Rain 54 12.2 51 10.6 90 90 ENE 14 22 29.92 1013 5 8 0.00 0.00
1:53 pm 13:53 Cloudy with Rain 54 12.2 52 11.1 93 93 ENE 17 28 29.86 1011 5 8 0.11 2.79
2:38 pm 14:38 Cloudy with Heavy Rain 54 12.2 52 11.1 93 93 NE 13 20 29.83 1010 2 3 0.07 1.78
2:53 pm 14:53 Cloudy with Heavy Rain 54 12.2 52 11.1 93 93 NE 15 24 29.79 1009 2 3 0.11 2.79
3:01 pm 15:01 Cloudy with Heavy Rain 54 12.2 52 11.1 93 93 NE 14 22 29.81 1010 2 3 0.03 0.76
3:53 pm 15:53 Cloudy with Light Rain 55 12.8 52 11.1 90 90 ENE 12 19 29.78 1009 4 6 0.13 3.30
4:53 pm 16:53 Cloudy with Heavy Rain 55 12.8 53 11.7 93 93 NE 12 19 29.77 1008 4 6 0.08 2.03
5:36 pm 17:36 Cloudy with Rain 55 12.8 52 11.1 90 90 ENE 10 17 29.77 1008 4 6 0.07 1.78
5:53 pm 17:53 Cloudy with Rain 54 12.2 52 11.1 93 93 NE 14 22 29.76 1008 7 11 0.09 2.29
6:53 pm 18:53 Cloudy with Rain 54 12.2 52 11.1 93 93 NE 12 19 29.77 1008 7 11 0.09 2.29
7:53 pm 19:53 Cloudy with Light Rain 54 12.2 52 11.1 93 93 NNE 8 13 29.77 1008 10 16 0.09 2.29
8:53 pm 20:53 Cloudy 54 12.2 52 11.1 93 93 NNE 10 17 29.77 1008 10 16 0.08 2.03
9:53 pm 21:53 Cloudy 55 12.8 52 11.1 90 90 NNE 13 20 29.77 1008 10 16 0.02 0.51
10:48 pm 22:48 Cloudy 55 13 54 12 94 94 NE 10 17 29.77 1008 10 16 0.00 0.00
10:53 pm 22:53 Cloudy 56 13.3 53 11.7 90 90 NE 12 19 29.75 1008 10 16 0.00 0.00
11:53 pm 23:53 Cloudy 56 13.3 54 12.2 93 93 NE 9 15 29.74 1007 10 16 0.02 0.51

Powered by AerisWeather